SCP
0 -0 -0 -0 -0 -0 -0 -0 -0 -0 -0 -0 -0 -0 -0 -0 -0 0 0 0 0 0 0 0 0 0 0 0 0 0 0 0 0 0 0 0 0 0 0 0 0 0 0 0 0
-0 -0 -0 -0 -0 -0 -0 -0 -0 -0 -0 -0 -0 -0 -0 -0 0 0 0 0 0 0 0 0 0 0 0 0 0 0 0 0 0 0 0 0 0 0 0 0 0 0 0 0 0
-0 -0 -0 -0 -0 -0 -0 -0 -0 -0 -0 -0 -0 -0 -0 0 0 0 0 0 0 0 0 0 0 0 0 0 0 0 -0 -0 -0 0 0 0 0 0 0 0 0 -0 0 0 0
-0 -0 -0 -0 -0 -0 -0 -0 -0 -0 -0 -0 -0 -0 0 0 0 0 0 -0 0 0 0 0 0 0 0 0 0 0 0 -0 -0 -0 -0 0 0 0 0 0 0 -0 -0 0 0
-0 -0 -0 -0 -0 -0 -0 -0 -0 -0 -0 -0 -0 0 0 0 -0 0 0 0 0 0 0 0 0 0 0 0 0 -0 -0 -0 -0 -0 0 0 -0 0 -0 -0 0 0 0 0 0
-0 -0 -0 -0 -0 -0 -0 -0 -0 -0 -0 -0 -0 0 0 0 0 -0 0 0 0 0 0 -0 0 0 0 0 0 0 -0 -0 0 0 -0 0 0 0 0 -0 0 0 0 0 0
-0 -0 -0 -0 -0 -0 -0 -0 -0 -0 -0 -0 0 0 0 -0 0 -0 0 0 0 0 0 0 0 0 0 0 0 0 0 -0 -0 -0 0 0 0 0 0 0 -0 -0 0 0 0
-0 -0 -0 -0 -0 -0 -0 -0 -0 -0 -0 0 0 0 0 0 -0 0 0 0 0 0 0 0 0 0 0 0 0 0 0 -0 -0 0 -0 0 0 0 0 0 0 -0 0 -0 0
-0 -0 -0 -0 -0 -0 -0 -0 -0 0 0 -0 0 0 0 -0 0 0 0 0 0 0 0 0 -0 0 0 0 0 0 0 0 0 0 0 0 0 -0 -0 -0 0 -0 0 0 -0
-0 -0 -0 -0 -0 -0 -0 -0 0 0 0 0 0 0 0 0 0 0 -0 0 0 0 0 0 0 0 -0 0 0 0 0 0 0 0 0 0 0 0 0 -0 -0 -0 0 -0 -0
-0 -0 -0 -0 -0 -0 0 0 0 0 0 0 0 0 -0 0 0 0 -0 -0 0 0 0 0 0 0 0 -0 0 0 0 0 0 0 0 0 0 0 0 0 0 0 0 0 0
-0 -0 -0 -0 -0 -0 0 0 0 -0 0 0 -0 0 -0 0 0 0 0 0 0 0 0 -0 0 0 -0 -0 0 0 0 0 0 0 0 0 0 0 0 -0 0 -0 -0 0 0
-0 -0 -0 -0 -0 0 0 0 0 -0 0 0 0 0 0 0 0 0 0 0 -0 -0 0 0 -0 0 -0 -0 -0 0 -0 -0 0 0 -0 0 0 0 0 0 0 -0 0 0 0
-0 -0 -0 -0 0 -0 -0 0 -0 0 0 0 0 0 0 0 0 0 -0 0 0 -0 0 0 -0 -0 -0 -0 0 0 0 0 0 0 0 0 0 0 0 -0 0 -0 -0 0 0
-0 -0 -0 -0 -0 -0 -0 -0 -0 0 0 -0 0 0 0 0 -0 -0 0 0 0 0 0 -0 -0 0 -0 0 0 0 0 0 0 0 0 -0 0 0 -0 0 0 0 0 0 0
-0 -0 0 -0 0 -0 -0 -0 0 0 0 -0 -0 0 0 0 0 0 0 0 0 0 0 -0 -0 -0 -0 -0 0 0 0 0 0 0 0 0 0 0 0 0 -0 0 0 -0 0
-0 -0 -0 0 -0 0 0 0 0 0 0 -0 0 0 0 0 -0 0 0 0 -0 0 0 0 0 0 -0 -0 0 0 0 0 0 0 0 0 0 0 0 0 0 0 0 0 0
-0 -0 -0 0 0 0 0 0 0 0 0 0 0 0 0 0 -0 -0 0 0 0 0 0 0 0 0 -0 -0 -0 0 0 0 0 0 0 0 0 0 0 0 0 -0 -0 -0 0
-0 0 0 0 -0 0 0 0 0 0 -0 -0 -0 0 -0 -0 0 0 0 0 0 0 0 0 0 0 -0 -0 -0 0 0 0 0 0 0 -0 0 0 0 0 -0 -0 -0 -0 0
0 0 0 0 0 0 0 0 0 0 0 0 0 0 0 -0 0 0 0 0 0 0 0 0 0 0 -0 0 0 0 0 0 0 0 0 0 -0 0 0 0 0 0 0 0 0
0 0 0 0 0 0 0 0 0 0 0 0 0 0 0 -0 -0 -0 -0 -0 0 0 0 0 0 0 0 0 0 0 0 0 0 0 0 0 0 0 0 0 0 0 0 0 0
0 0 0 0 0 0 0 0 0 -0 -0 0 0 0 0 0 0 -0 0 -0 0 -0 0 0 0 0 0 0 0 0 0 0 0 0 0 0 0 0 0 0 0 0 0 0 0
0 0 0 0 0 0 0 0 0 0 0 0 0 0 0 0 0 0 0 0 0 0 0 0 0 0 -0 0 -0 -0 0 0 0 0 0 0 -0 0 -0 -0 0 0 0 0 0
0 0 0 0 0 0 0 0 0 0 0 0 0 0 0 0 0 0 0 0 0 0 0 0 0 0 0 0 -0 -0 -0 -0 -0 0 0 0 0 0 0 0 0 0 0 0 0
0 0 0 0 0 0 0 0 0 0 0 0 0 0 0 0 0 0 0 0 0 0 0 0 0 0 -0 0 -0 -0 0 -0 -0 0 0 0 0 0 0 0 0 0 0 0 0
0 0 0 0 0 0 0 0 0 0 0 0 0 0 0 -0 -0 0 0 0 0 0 0 0 0 0 0 0 0 -0 0 0 0 0 0 0 0 0 0 0 0 0 0 0 0
0 0 0 0 0 0 0 0 0 0 0 0 0 0 0 0 0 0 0 0 0 0 0 0 0 0 0 0 0 0 0 0 0 1 0 0 0 0 0 0 0 0 0 0 0
Wind_Speed_500mb
47 43 41 40 38 34 32 29 26 26 25 19 13 13 15 16 20 23 24 14 17 17 15 12 11 13 12 8 16 18 4 9 16 12 9 23 10 19 24 27 10 15 30 39 46
44 45 44 42 38 35 32 29 25 23 23 18 12 12 15 17 20 28 16 19 11 18 18 19 26 33 16 3 7 6 10 12 16 13 14 21 25 28 25 24 21 32 42 48 51
40 44 45 43 38 36 31 29 24 21 20 17 12 10 12 14 20 12 5 2 7 15 15 16 19 27 9 20 2 2 2 11 11 12 15 42 20 24 45 12 54 60 57 49 50
45 40 44 45 40 34 33 28 23 20 19 17 12 8 11 10 3 14 6 5 7 16 13 21 18 18 14 11 15 4 26 25 23 26 14 7 22 27 9 10 46 49 50 38 46
46 46 42 44 41 37 33 28 22 19 20 17 11 7 7 9 14 11 11 1 8 7 21 27 31 15 11 5 9 11 10 6 20 20 25 30 46 32 59 20 37 44 38 32 36
44 46 45 43 44 38 32 27 20 19 20 16 10 5 7 8 5 10 10 4 7 15 21 26 29 9 18 5 6 17 2 14 22 25 33 26 26 45 39 25 21 42 38 31 32
45 45 46 44 42 38 31 24 23 21 19 13 8 8 14 19 0 13 16 8 13 24 34 36 41 42 9 5 20 7 9 25 23 3 12 32 14 13 23 11 9 10 35 30 33
46 45 46 45 40 36 29 27 24 18 13 7 7 8 15 13 16 23 14 17 18 30 38 40 39 44 7 11 7 8 11 6 16 9 22 5 7 11 23 21 25 21 39 33 41
46 47 45 42 40 32 28 28 17 10 2 2 4 8 11 9 16 18 23 18 23 29 32 42 24 23 16 11 9 7 6 5 8 6 12 18 5 37 39 31 12 32 26 39 30
44 46 44 41 32 27 36 28 9 9 19 4 12 5 15 23 20 14 20 18 24 30 35 19 15 7 10 8 10 14 6 4 9 9 38 33 26 20 14 24 36 30 22 39 34
44 46 43 35 19 24 32 45 36 5 48 20 11 23 35 18 19 18 16 18 19 26 10 13 13 13 27 14 14 10 1 13 5 20 14 19 8 8 17 25 15 35 16 24 33
44 45 42 31 9 17 25 37 41 27 20 25 27 33 25 17 24 18 15 10 11 11 13 14 6 13 24 27 12 11 18 8 6 3 11 8 11 8 12 1 23 35 16 33 41
43 45 42 31 11 16 19 33 31 34 7 21 22 22 14 6 11 16 7 13 15 8 3 3 16 24 16 21 10 2 14 13 12 9 10 14 5 6 6 14 10 18 41 44 31
42 42 42 39 9 24 9 21 18 29 8 12 14 13 22 12 11 29 19 18 4 11 5 7 16 15 25 13 2 3 9 19 21 7 7 2 4 13 10 15 10 29 32 20 11
40 41 39 37 34 18 21 27 13 9 7 8 11 14 27 22 4 7 15 21 17 4 8 13 14 22 21 11 5 15 8 21 9 11 12 8 11 14 14 11 10 42 32 30 13
40 38 44 38 30 15 33 33 9 10 2 4 16 13 12 30 18 8 7 7 4 1 6 10 12 7 10 19 11 10 16 16 10 7 7 3 14 10 9 3 12 42 45 29 26
40 36 40 33 24 17 21 12 9 7 11 7 11 11 14 10 8 5 5 4 4 7 10 15 11 12 5 15 15 13 13 7 10 9 4 6 10 9 9 10 30 38 53 21 29
40 39 35 24 5 11 15 9 8 8 8 5 6 8 16 11 12 6 5 3 7 8 2 4 19 9 13 8 8 9 14 11 6 4 4 11 4 4 15 35 51 61 62 57 28
40 35 26 8 3 12 9 7 10 8 16 12 10 8 6 10 11 12 14 12 14 15 14 7 11 5 10 3 4 6 9 3 12 8 8 5 1 9 13 19 39 41 32 47 24
41 40 4 10 2 5 8 8 9 10 21 9 6 4 7 12 14 15 13 11 16 21 19 10 4 7 8 9 8 9 3 7 7 7 4 8 8 6 15 24 19 34 45 48 38
31 23 12 6 1 1 4 12 12 37 33 14 3 5 11 10 20 14 16 16 12 10 27 11 8 12 4 2 6 8 3 13 8 9 10 8 10 13 17 19 14 35 33 23 41
16 7 17 17 2 2 4 8 21 33 62 14 5 5 6 3 8 15 14 13 17 18 6 3 9 1 10 8 10 6 5 10 9 3 5 8 9 13 18 23 21 33 26 31 42
21 14 12 17 2 4 14 12 14 10 15 7 7 4 8 10 9 7 5 1 13 8 11 6 5 6 21 13 11 7 3 4 7 7 6 9 9 5 14 30 35 41 55 41 30
10 6 8 20 13 4 8 12 10 32 21 10 10 8 11 15 15 6 14 18 21 21 8 7 7 11 9 14 8 6 18 10 12 8 4 3 3 10 9 15 31 37 35 18 7
4 7 12 6 4 10 7 7 15 8 15 27 8 3 5 9 6 9 12 14 18 23 7 8 5 5 8 12 6 5 17 26 25 4 13 7 4 9 11 12 9 42 33 20 18
5 10 18 22 25 10 4 6 7 5 3 18 9 10 12 9 8 11 7 6 6 8 7 10 1 5 11 8 5 4 12 10 8 9 15 16 2 7 9 25 35 34 29 31 31
5 7 7 14 16 6 4 13 15 18 20 13 12 7 13 3 5 7 12 10 10 2 5 7 4 6 6 6 2 7 4 8 9 14 11 8 6 2 9 27 29 28 27 31 35
Wind_Direction_500mb
349 351 348 349 348 349 349 346 345 349 350 344 325 300 292 292 297 290 282 299 318 329 328 313 350 10 278 264 202 205 79 235 187 174 201 169 138 177 131 144 154 184 167 158 166
349 347 346 347 348 346 345 344 339 341 345 342 323 297 291 297 298 288 292 288 311 302 317 331 351 353 337 289 232 185 144 241 192 165 167 194 176 160 138 125 114 120 142 148 162
352 346 343 345 347 342 341 340 337 332 339 336 324 306 290 302 314 307 248 147 325 295 317 332 338 336 289 327 26 287 112 270 19 196 134 185 209 157 146 161 155 147 152 156 166
349 350 342 341 343 341 335 335 333 325 328 329 330 309 291 301 276 359 348 90 310 319 344 334 321 319 336 332 329 339 40 20 344 344 11 109 62 65 112 169 171 163 161 163 174
346 347 347 339 341 338 332 330 328 320 316 319 324 310 283 277 268 313 267 314 335 332 349 331 322 289 272 349 7 39 336 345 24 355 88 84 51 76 45 53 164 160 165 170 175
345 344 345 342 338 336 332 324 321 314 307 307 301 283 249 261 260 4 255 260 310 321 322 322 304 303 281 338 131 220 308 359 61 99 77 80 49 82 42 358 156 173 182 187 198
345 344 345 344 337 334 329 321 316 307 301 290 277 258 240 234 17 316 312 303 317 316 311 310 307 299 258 172 190 38 27 341 86 73 119 91 31 61 35 30 102 245 198 210 214
343 345 345 343 339 336 335 331 315 310 297 261 277 250 245 231 267 266 289 311 323 318 315 336 319 304 232 207 351 40 45 51 350 344 39 357 339 211 352 18 39 320 309 243 221
344 345 345 345 344 345 353 347 349 319 325 268 222 205 252 220 247 267 269 285 310 307 312 317 324 307 246 148 20 329 232 121 323 64 119 109 347 325 342 17 11 351 309 307 281
344 344 346 347 347 356 17 10 48 71 25 337 191 222 230 224 250 278 229 250 286 304 313 336 341 336 13 97 231 263 281 174 173 72 105 114 178 170 96 301 291 306 273 289 328
343 343 345 350 351 352 22 37 30 1 328 268 226 285 281 310 287 296 194 221 271 288 323 357 6 324 306 246 190 209 72 132 96 127 73 135 115 302 151 245 289 271 241 278 335
342 341 343 354 336 355 14 26 21 347 308 285 255 256 270 294 292 255 205 235 253 285 352 8 303 277 340 356 173 107 119 119 92 65 77 210 161 251 102 271 322 280 316 299 303
341 340 343 356 327 344 43 17 11 348 301 288 230 235 215 208 243 227 242 295 229 286 332 174 270 321 5 353 37 45 145 188 144 133 71 156 72 65 26 167 349 301 305 302 284
337 339 341 348 335 336 351 335 332 347 53 274 193 230 212 209 263 250 259 276 241 237 274 274 303 342 336 332 298 336 194 111 131 123 113 147 343 2 310 328 30 288 320 310 205
332 336 332 336 325 331 326 323 336 340 58 158 179 201 188 185 189 236 303 249 214 278 84 263 315 323 323 265 8 240 46 128 115 95 107 334 69 292 321 347 278 291 315 335 197
326 331 323 329 327 319 324 335 346 39 352 220 164 172 138 208 239 251 317 50 106 43 330 241 286 232 234 290 251 193 84 43 56 75 58 214 128 281 256 266 309 265 278 302 196
319 322 315 316 323 334 325 339 43 103 323 194 186 146 173 196 255 205 282 13 113 15 339 332 284 289 331 347 308 95 59 12 15 20 187 330 87 213 220 184 222 255 275 281 201
316 317 310 311 10 357 355 48 60 259 292 2 141 105 175 171 238 225 128 194 257 121 111 260 333 26 319 95 261 89 135 145 184 178 180 356 144 204 216 213 240 246 248 263 249
319 318 313 148 74 15 346 63 219 279 324 11 45 89 255 218 168 186 194 211 226 172 169 180 264 351 51 11 44 344 44 141 101 61 77 274 353 327 278 251 257 261 261 254 266
324 327 98 157 120 349 62 238 258 276 320 28 79 140 259 241 162 162 195 223 241 198 165 251 317 315 318 57 7 106 165 35 18 104 141 308 292 222 255 264 258 262 256 263 266
323 321 164 172 181 180 170 242 292 304 341 332 303 299 258 223 199 184 212 254 213 263 163 169 118 295 16 305 200 330 55 53 109 135 145 168 255 226 236 224 249 232 220 260 207
311 308 170 201 300 76 223 226 320 304 316 269 268 251 280 262 234 191 210 232 215 169 111 14 131 50 266 314 229 149 181 137 117 236 199 149 258 233 245 257 263 263 268 287 220
320 279 200 215 177 300 296 293 274 299 301 331 296 31 287 348 39 45 170 339 95 86 146 183 15 26 342 353 6 12 237 180 115 84 189 120 256 238 261 280 281 276 281 296 226
323 340 316 212 249 108 312 284 309 320 303 258 265 358 10 42 13 30 13 20 44 30 71 98 107 141 183 234 213 354 31 75 135 91 244 21 23 339 284 270 298 302 276 267 232
335 288 356 305 325 318 251 278 297 313 330 349 308 40 360 31 45 29 41 3 45 9 37 88 111 130 220 40 43 26 93 77 62 269 110 267 354 293 264 248 183 64 87 55 3
348 356 345 302 295 298 229 248 266 308 271 314 15 309 81 127 173 201 140 111 233 341 50 0 354 47 354 64 17 104 64 89 122 174 114 130 171 274 76 82 57 52 44 35 29
344 304 318 290 324 348 10 312 321 353 303 310 280 96 73 337 57 2 338 130 169 57 65 54 64 67 277 8 36 339 16 18 331 35 125 152 188 71 50 70 53 43 42 20 1
Wind_Speed_850mb
47 43 41 40 38 34 32 29 26 26 25 19 13 13 15 16 20 23 24 14 17 17 15 12 11 13 12 8 16 18 4 9 16 12 9 23 10 19 24 27 10 15 30 39 46
44 45 44 42 38 35 32 29 25 23 23 18 12 12 15 17 20 28 16 19 11 18 18 19 26 33 16 3 7 6 10 12 16 13 14 21 25 28 25 24 21 32 42 48 51
40 44 45 43 38 36 31 29 24 21 20 17 12 10 12 14 20 12 5 2 7 15 15 16 19 27 9 20 2 2 2 11 11 12 15 42 20 24 45 12 54 60 57 49 50
45 40 44 45 40 34 33 28 23 20 19 17 12 8 11 10 3 14 6 5 7 16 13 21 18 18 14 11 15 4 26 25 23 26 14 7 22 27 9 10 46 49 50 38 46
46 46 42 44 41 37 33 28 22 19 20 17 11 7 7 9 14 11 11 1 8 7 21 27 31 15 11 5 9 11 10 6 20 20 25 30 46 32 59 20 37 44 38 32 36
44 46 45 43 44 38 32 27 20 19 20 16 10 5 7 8 5 10 10 4 7 15 21 26 29 9 18 5 6 17 2 14 22 25 33 26 26 45 39 25 21 42 38 31 32
45 45 46 44 42 38 31 24 23 21 19 13 8 8 14 19 0 13 16 8 13 24 34 36 41 42 9 5 20 7 9 25 23 3 12 32 14 13 23 11 9 10 35 30 33
46 45 46 45 40 36 29 27 24 18 13 7 7 8 15 13 16 23 14 17 18 30 38 40 39 44 7 11 7 8 11 6 16 9 22 5 7 11 23 21 25 21 39 33 41
46 47 45 42 40 32 28 28 17 10 2 2 4 8 11 9 16 18 23 18 23 29 32 42 24 23 16 11 9 7 6 5 8 6 12 18 5 37 39 31 12 32 26 39 30
44 46 44 41 32 27 36 28 9 9 19 4 12 5 15 23 20 14 20 18 24 30 35 19 15 7 10 8 10 14 6 4 9 9 38 33 26 20 14 24 36 30 22 39 34
44 46 43 35 19 24 32 45 36 5 48 20 11 23 35 18 19 18 16 18 19 26 10 13 13 13 27 14 14 10 1 13 5 20 14 19 8 8 17 25 15 35 16 24 33
44 45 42 31 9 17 25 37 41 27 20 25 27 33 25 17 24 18 15 10 11 11 13 14 6 13 24 27 12 11 18 8 6 3 11 8 11 8 12 1 23 35 16 33 41
43 45 42 31 11 16 19 33 31 34 7 21 22 22 14 6 11 16 7 13 15 8 3 3 16 24 16 21 10 2 14 13 12 9 10 14 5 6 6 14 10 18 41 44 31
42 42 42 39 9 24 9 21 18 29 8 12 14 13 22 12 11 29 19 18 4 11 5 7 16 15 25 13 2 3 9 19 21 7 7 2 4 13 10 15 10 29 32 20 11
40 41 39 37 34 18 21 27 13 9 7 8 11 14 27 22 4 7 15 21 17 4 8 13 14 22 21 11 5 15 8 21 9 11 12 8 11 14 14 11 10 42 32 30 13
40 38 44 38 30 15 33 33 9 10 2 4 16 13 12 30 18 8 7 7 4 1 6 10 12 7 10 19 11 10 16 16 10 7 7 3 14 10 9 3 12 42 45 29 26
40 36 40 33 24 17 21 12 9 7 11 7 11 11 14 10 8 5 5 4 4 7 10 15 11 12 5 15 15 13 13 7 10 9 4 6 10 9 9 10 30 38 53 21 29
40 39 35 24 5 11 15 9 8 8 8 5 6 8 16 11 12 6 5 3 7 8 2 4 19 9 13 8 8 9 14 11 6 4 4 11 4 4 15 35 51 61 62 57 28
40 35 26 8 3 12 9 7 10 8 16 12 10 8 6 10 11 12 14 12 14 15 14 7 11 5 10 3 4 6 9 3 12 8 8 5 1 9 13 19 39 41 32 47 24
41 40 4 10 2 5 8 8 9 10 21 9 6 4 7 12 14 15 13 11 16 21 19 10 4 7 8 9 8 9 3 7 7 7 4 8 8 6 15 24 19 34 45 48 38
31 23 12 6 1 1 4 12 12 37 33 14 3 5 11 10 20 14 16 16 12 10 27 11 8 12 4 2 6 8 3 13 8 9 10 8 10 13 17 19 14 35 33 23 41
16 7 17 17 2 2 4 8 21 33 62 14 5 5 6 3 8 15 14 13 17 18 6 3 9 1 10 8 10 6 5 10 9 3 5 8 9 13 18 23 21 33 26 31 42
21 14 12 17 2 4 14 12 14 10 15 7 7 4 8 10 9 7 5 1 13 8 11 6 5 6 21 13 11 7 3 4 7 7 6 9 9 5 14 30 35 41 55 41 30
10 6 8 20 13 4 8 12 10 32 21 10 10 8 11 15 15 6 14 18 21 21 8 7 7 11 9 14 8 6 18 10 12 8 4 3 3 10 9 15 31 37 35 18 7
4 7 12 6 4 10 7 7 15 8 15 27 8 3 5 9 6 9 12 14 18 23 7 8 5 5 8 12 6 5 17 26 25 4 13 7 4 9 11 12 9 42 33 20 18
5 10 18 22 25 10 4 6 7 5 3 18 9 10 12 9 8 11 7 6 6 8 7 10 1 5 11 8 5 4 12 10 8 9 15 16 2 7 9 25 35 34 29 31 31
5 7 7 14 16 6 4 13 15 18 20 13 12 7 13 3 5 7 12 10 10 2 5 7 4 6 6 6 2 7 4 8 9 14 11 8 6 2 9 27 29 28 27 31 35
Wind_Direction_850mb
349 351 348 349 348 349 349 346 345 349 350 344 325 300 292 292 297 290 282 299 318 329 328 313 350 10 278 264 202 205 79 235 187 174 201 169 138 177 131 144 154 184 167 158 166
349 347 346 347 348 346 345 344 339 341 345 342 323 297 291 297 298 288 292 288 311 302 317 331 351 353 337 289 232 185 144 241 192 165 167 194 176 160 138 125 114 120 142 148 162
352 346 343 345 347 342 341 340 337 332 339 336 324 306 290 302 314 307 248 147 325 295 317 332 338 336 289 327 26 287 112 270 19 196 134 185 209 157 146 161 155 147 152 156 166
349 350 342 341 343 341 335 335 333 325 328 329 330 309 291 301 276 359 348 90 310 319 344 334 321 319 336 332 329 339 40 20 344 344 11 109 62 65 112 169 171 163 161 163 174
346 347 347 339 341 338 332 330 328 320 316 319 324 310 283 277 268 313 267 314 335 332 349 331 322 289 272 349 7 39 336 345 24 355 88 84 51 76 45 53 164 160 165 170 175
345 344 345 342 338 336 332 324 321 314 307 307 301 283 249 261 260 4 255 260 310 321 322 322 304 303 281 338 131 220 308 359 61 99 77 80 49 82 42 358 156 173 182 187 198
345 344 345 344 337 334 329 321 316 307 301 290 277 258 240 234 17 316 312 303 317 316 311 310 307 299 258 172 190 38 27 341 86 73 119 91 31 61 35 30 102 245 198 210 214
343 345 345 343 339 336 335 331 315 310 297 261 277 250 245 231 267 266 289 311 323 318 315 336 319 304 232 207 351 40 45 51 350 344 39 357 339 211 352 18 39 320 309 243 221
344 345 345 345 344 345 353 347 349 319 325 268 222 205 252 220 247 267 269 285 310 307 312 317 324 307 246 148 20 329 232 121 323 64 119 109 347 325 342 17 11 351 309 307 281
344 344 346 347 347 356 17 10 48 71 25 337 191 222 230 224 250 278 229 250 286 304 313 336 341 336 13 97 231 263 281 174 173 72 105 114 178 170 96 301 291 306 273 289 328
343 343 345 350 351 352 22 37 30 1 328 268 226 285 281 310 287 296 194 221 271 288 323 357 6 324 306 246 190 209 72 132 96 127 73 135 115 302 151 245 289 271 241 278 335
342 341 343 354 336 355 14 26 21 347 308 285 255 256 270 294 292 255 205 235 253 285 352 8 303 277 340 356 173 107 119 119 92 65 77 210 161 251 102 271 322 280 316 299 303
341 340 343 356 327 344 43 17 11 348 301 288 230 235 215 208 243 227 242 295 229 286 332 174 270 321 5 353 37 45 145 188 144 133 71 156 72 65 26 167 349 301 305 302 284
337 339 341 348 335 336 351 335 332 347 53 274 193 230 212 209 263 250 259 276 241 237 274 274 303 342 336 332 298 336 194 111 131 123 113 147 343 2 310 328 30 288 320 310 205
332 336 332 336 325 331 326 323 336 340 58 158 179 201 188 185 189 236 303 249 214 278 84 263 315 323 323 265 8 240 46 128 115 95 107 334 69 292 321 347 278 291 315 335 197
326 331 323 329 327 319 324 335 346 39 352 220 164 172 138 208 239 251 317 50 106 43 330 241 286 232 234 290 251 193 84 43 56 75 58 214 128 281 256 266 309 265 278 302 196
319 322 315 316 323 334 325 339 43 103 323 194 186 146 173 196 255 205 282 13 113 15 339 332 284 289 331 347 308 95 59 12 15 20 187 330 87 213 220 184 222 255 275 281 201
316 317 310 311 10 357 355 48 60 259 292 2 141 105 175 171 238 225 128 194 257 121 111 260 333 26 319 95 261 89 135 145 184 178 180 356 144 204 216 213 240 246 248 263 249
319 318 313 148 74 15 346 63 219 279 324 11 45 89 255 218 168 186 194 211 226 172 169 180 264 351 51 11 44 344 44 141 101 61 77 274 353 327 278 251 257 261 261 254 266
324 327 98 157 120 349 62 238 258 276 320 28 79 140 259 241 162 162 195 223 241 198 165 251 317 315 318 57 7 106 165 35 18 104 141 308 292 222 255 264 258 262 256 263 266
323 321 164 172 181 180 170 242 292 304 341 332 303 299 258 223 199 184 212 254 213 263 163 169 118 295 16 305 200 330 55 53 109 135 145 168 255 226 236 224 249 232 220 260 207
311 308 170 201 300 76 223 226 320 304 316 269 268 251 280 262 234 191 210 232 215 169 111 14 131 50 266 314 229 149 181 137 117 236 199 149 258 233 245 257 263 263 268 287 220
320 279 200 215 177 300 296 293 274 299 301 331 296 31 287 348 39 45 170 339 95 86 146 183 15 26 342 353 6 12 237 180 115 84 189 120 256 238 261 280 281 276 281 296 226
323 340 316 212 249 108 312 284 309 320 303 258 265 358 10 42 13 30 13 20 44 30 71 98 107 141 183 234 213 354 31 75 135 91 244 21 23 339 284 270 298 302 276 267 232
335 288 356 305 325 318 251 278 297 313 330 349 308 40 360 31 45 29 41 3 45 9 37 88 111 130 220 40 43 26 93 77 62 269 110 267 354 293 264 248 183 64 87 55 3
348 356 345 302 295 298 229 248 266 308 271 314 15 309 81 127 173 201 140 111 233 341 50 0 354 47 354 64 17 104 64 89 122 174 114 130 171 274 76 82 57 52 44 35 29
344 304 318 290 324 348 10 312 321 353 303 310 280 96 73 337 57 2 338 130 169 57 65 54 64 67 277 8 36 339 16 18 331 35 125 152 188 71 50 70 53 43 42 20 1